Time,TemperatureF,DewpointF,PressureIn,WindDirection,WindDirectionDegrees,WindSpeedMPH,WindSpeedGustMPH,Humidity,HourlyPrecipIn,Conditions,Clouds,dailyrainin,SolarRadiationWatts/m^2,SoftwareType,DateUTC
2013-04-03 00:13:00,72.0,40.0,-100.00,WNW,292,6.0,12.0,31,0.00,,,0.00,576.000000,,2013-04-03 00:13:00,
2013-04-03 00:23:00,72.0,40.0,-100.00,WNW,292,6.0,12.0,31,0.00,,,0.00,576.000000,,2013-04-03 00:23:00,
2013-04-03 00:32:00,72.0,40.0,-100.00,WNW,292,6.0,12.0,31,0.00,,,0.00,576.000000,,2013-04-03 00:32:00,
2013-04-03 00:44:00,72.0,40.0,-100.00,WNW,292,6.0,12.0,31,0.00,,,0.00,576.000000,,2013-04-03 00:44:00,
2013-04-03 00:50:00,67.0,47.0,-100.00,WSW,258,12.0,18.0,49,0.00,,,0.00,351.000000,,2013-04-03 00:50:00,
2013-04-03 01:22:00,67.0,47.0,-100.00,WSW,258,12.0,18.0,49,0.00,,,0.00,351.000000,,2013-04-03 01:22:00,
2013-04-03 01:33:00,67.0,47.0,-100.00,WSW,258,12.0,18.0,49,0.00,,,0.00,351.000000,,2013-04-03 01:33:00,
2013-04-03 01:42:00,67.0,47.0,-100.00,WSW,258,12.0,18.0,49,0.00,,,0.00,351.000000,,2013-04-03 01:42:00,
2013-04-03 01:50:00,62.0,47.0,-100.00,West,264,12.0,17.0,57,0.00,,,0.00,127.000000,,2013-04-03 01:50:00,
2013-04-03 02:13:00,62.0,47.0,-100.00,West,264,12.0,17.0,57,0.00,,,0.00,127.000000,,2013-04-03 02:13:00,
2013-04-03 02:23:00,62.0,47.0,-100.00,West,264,12.0,17.0,57,0.00,,,0.00,127.000000,,2013-04-03 02:23:00,
2013-04-03 02:33:00,62.0,47.0,-100.00,West,264,12.0,17.0,57,0.00,,,0.00,127.000000,,2013-04-03 02:33:00,
2013-04-03 02:42:00,62.0,47.0,-100.00,West,264,12.0,17.0,57,0.00,,,0.00,127.000000,,2013-04-03 02:42:00,
2013-04-03 02:50:00,56.0,47.0,-100.00,West,262,11.0,18.0,71,0.00,,,0.00,5.000000,,2013-04-03 02:50:00,
2013-04-03 03:13:00,56.0,47.0,-100.00,West,262,11.0,18.0,71,0.00,,,0.00,5.000000,,2013-04-03 03:13:00,
2013-04-03 03:22:00,56.0,47.0,-100.00,West,262,11.0,18.0,71,0.00,,,0.00,5.000000,,2013-04-03 03:22:00,
2013-04-03 03:35:00,56.0,47.0,-100.00,West,262,11.0,18.0,71,0.00,,,0.00,5.000000,,2013-04-03 03:35:00,
2013-04-03 03:43:00,56.0,47.0,-100.00,West,262,11.0,18.0,71,0.00,,,0.00,5.000000,,2013-04-03 03:43:00,
2013-04-03 03:50:00,52.0,46.0,-100.00,WNW,288,3.0,15.0,80,0.00,,,0.00,0.000000,,2013-04-03 03:50:00,
2013-04-03 04:12:00,52.0,46.0,-100.00,WNW,288,3.0,15.0,80,0.00,,,0.00,0.000000,,2013-04-03 04:12:00,
2013-04-03 04:23:00,52.0,46.0,-100.00,WNW,288,3.0,15.0,80,0.00,,,0.00,0.000000,,2013-04-03 04:23:00,
2013-04-03 04:32:00,52.0,46.0,-100.00,WNW,288,3.0,15.0,80,0.00,,,0.00,0.000000,,2013-04-03 04:32:00,
2013-04-03 04:42:00,52.0,46.0,-100.00,WNW,288,3.0,15.0,80,0.00,,,0.00,0.000000,,2013-04-03 04:42:00,
2013-04-03 04:50:00,49.0,44.0,-100.00,SW,233,3.0,8.0,82,0.00,,,0.00,0.000000,,2013-04-03 04:50:00,
2013-04-03 05:12:00,49.0,44.0,-100.00,SW,233,3.0,8.0,82,0.00,,,0.00,0.000000,,2013-04-03 05:12:00,
2013-04-03 05:22:00,49.0,44.0,-100.00,SW,233,3.0,8.0,82,0.00,,,0.00,0.000000,,2013-04-03 05:22:00,
2013-04-03 05:32:00,49.0,44.0,-100.00,SW,233,3.0,8.0,82,0.00,,,0.00,0.000000,,2013-04-03 05:32:00,
2013-04-03 05:42:00,49.0,44.0,-100.00,SW,233,3.0,8.0,82,0.00,,,0.00,0.000000,,2013-04-03 05:42:00,
2013-04-03 05:50:00,47.0,44.0,-100.00,WSW,238,3.0,4.0,90,0.00,,,0.00,0.000000,,2013-04-03 05:50:00,
2013-04-03 06:12:00,47.0,44.0,-100.00,WSW,238,3.0,4.0,90,0.00,,,0.00,0.000000,,2013-04-03 06:12:00,
2013-04-03 06:22:00,47.0,44.0,-100.00,WSW,238,3.0,4.0,90,0.00,,,0.00,0.000000,,2013-04-03 06:22:00,
2013-04-03 06:32:00,47.0,44.0,-100.00,WSW,238,3.0,4.0,90,0.00,,,0.00,0.000000,,2013-04-03 06:32:00,
2013-04-03 06:42:00,47.0,44.0,-100.00,WSW,238,3.0,4.0,90,0.00,,,0.00,0.000000,,2013-04-03 06:42:00,
2013-04-03 06:50:00,44.0,42.0,-100.00,SSW,200,2.0,4.0,94,0.00,,,0.00,0.000000,,2013-04-03 06:50:00,
2013-04-03 07:12:00,44.0,42.0,-100.00,SSW,200,2.0,4.0,94,0.00,,,0.00,0.000000,,2013-04-03 07:12:00,
2013-04-03 07:23:00,44.0,42.0,-100.00,SSW,200,2.0,4.0,94,0.00,,,0.00,0.000000,,2013-04-03 07:23:00,
2013-04-03 07:32:00,44.0,42.0,-100.00,SSW,200,2.0,4.0,94,0.00,,,0.00,0.000000,,2013-04-03 07:32:00,
2013-04-03 07:42:00,44.0,42.0,-100.00,SSW,200,2.0,4.0,94,0.00,,,0.00,0.000000,,2013-04-03 07:42:00,
2013-04-03 07:50:00,42.0,40.0,-100.00,WSW,256,4.0,5.0,92,0.00,,,0.00,0.000000,,2013-04-03 07:50:00,
2013-04-03 08:12:00,42.0,40.0,-100.00,WSW,256,4.0,5.0,92,0.00,,,0.00,0.000000,,2013-04-03 08:12:00,
2013-04-03 08:22:00,42.0,40.0,-100.00,WSW,256,4.0,5.0,92,0.00,,,0.00,0.000000,,2013-04-03 08:22:00,
2013-04-03 08:32:00,42.0,40.0,-100.00,WSW,256,4.0,5.0,92,0.00,,,0.00,0.000000,,2013-04-03 08:32:00,
2013-04-03 08:42:00,42.0,40.0,-100.00,WSW,256,4.0,5.0,92,0.00,,,0.00,0.000000,,2013-04-03 08:42:00,
2013-04-03 08:50:00,41.0,38.0,-100.00,West,261,4.0,6.0,90,0.00,,,0.00,0.000000,,2013-04-03 08:50:00,
2013-04-03 09:22:00,41.0,38.0,-100.00,West,261,4.0,6.0,90,0.00,,,0.00,0.000000,,2013-04-03 09:22:00,
2013-04-03 09:33:00,41.0,38.0,-100.00,West,261,4.0,6.0,90,0.00,,,0.00,0.000000,,2013-04-03 09:33:00,
2013-04-03 09:43:00,41.0,38.0,-100.00,West,261,4.0,6.0,90,0.00,,,0.00,0.000000,,2013-04-03 09:43:00,
2013-04-03 09:50:00,40.0,35.0,-100.00,West,262,4.0,6.0,83,0.00,,,0.00,0.000000,,2013-04-03 09:50:00,
2013-04-03 10:12:00,40.0,35.0,-100.00,West,262,4.0,6.0,83,0.00,,,0.00,0.000000,,2013-04-03 10:12:00,
2013-04-03 10:22:00,40.0,35.0,-100.00,West,262,4.0,6.0,83,0.00,,,0.00,0.000000,,2013-04-03 10:22:00,
2013-04-03 10:33:00,40.0,35.0,-100.00,West,262,4.0,6.0,83,0.00,,,0.00,0.000000,,2013-04-03 10:33:00,
2013-04-03 10:42:00,40.0,35.0,-100.00,West,262,4.0,6.0,83,0.00,,,0.00,0.000000,,2013-04-03 10:42:00,
2013-04-03 10:50:00,39.0,36.0,-100.00,WSW,258,3.0,5.0,89,0.00,,,0.00,0.000000,,2013-04-03 10:50:00,
2013-04-03 11:12:00,39.0,36.0,-100.00,WSW,258,3.0,5.0,89,0.00,,,0.00,0.000000,,2013-04-03 11:12:00,
2013-04-03 11:22:00,39.0,36.0,-100.00,WSW,258,3.0,5.0,89,0.00,,,0.00,0.000000,,2013-04-03 11:22:00,
2013-04-03 11:32:00,39.0,36.0,-100.00,WSW,258,3.0,5.0,89,0.00,,,0.00,0.000000,,2013-04-03 11:32:00,
2013-04-03 11:42:00,39.0,36.0,-100.00,WSW,258,3.0,5.0,89,0.00,,,0.00,0.000000,,2013-04-03 11:42:00,
2013-04-03 11:50:00,40.0,36.0,-100.00,WSW,248,2.0,6.0,84,0.00,,,0.00,0.000000,,2013-04-03 11:50:00,
2013-04-03 12:12:00,40.0,36.0,-100.00,WSW,248,2.0,6.0,84,0.00,,,0.00,0.000000,,2013-04-03 12:12:00,
2013-04-03 12:22:00,40.0,36.0,-100.00,WSW,248,2.0,6.0,84,0.00,,,0.00,0.000000,,2013-04-03 12:22:00,
2013-04-03 12:32:00,40.0,36.0,-100.00,WSW,248,2.0,6.0,84,0.00,,,0.00,0.000000,,2013-04-03 12:32:00,
2013-04-03 12:42:00,40.0,36.0,-100.00,WSW,248,2.0,6.0,84,0.00,,,0.00,0.000000,,2013-04-03 12:42:00,
2013-04-03 12:50:00,39.0,35.0,-100.00,WSW,248,4.0,6.0,84,0.00,,,0.00,0.000000,,2013-04-03 12:50:00,
2013-04-03 13:22:00,39.0,35.0,-100.00,WSW,248,4.0,6.0,84,0.00,,,0.00,0.000000,,2013-04-03 13:22:00,
2013-04-03 13:42:00,39.0,35.0,-100.00,WSW,248,4.0,6.0,84,0.00,,,0.00,0.000000,,2013-04-03 13:42:00,
2013-04-03 13:50:00,39.0,33.0,-100.00,West,260,4.0,5.0,80,0.00,,,0.00,6.000000,,2013-04-03 13:50:00,
2013-04-03 14:12:00,39.0,33.0,-100.00,West,260,4.0,5.0,80,0.00,,,0.00,6.000000,,2013-04-03 14:12:00,
2013-04-03 14:22:00,39.0,33.0,-100.00,West,260,4.0,5.0,80,0.00,,,0.00,6.000000,,2013-04-03 14:22:00,
2013-04-03 14:42:00,39.0,33.0,-100.00,West,260,4.0,5.0,80,0.00,,,0.00,6.000000,,2013-04-03 14:42:00,
2013-04-03 14:50:00,48.0,39.0,-100.00,WSW,244,2.0,4.0,72,-99.99,,,0.00,97.000000,,2013-04-03 14:50:00,
2013-04-03 15:22:00,48.0,39.0,-100.00,WSW,244,2.0,4.0,72,-99.99,,,0.00,97.000000,,2013-04-03 15:22:00,
2013-04-03 15:33:00,48.0,39.0,-100.00,WSW,244,2.0,4.0,72,-99.99,,,0.00,97.000000,,2013-04-03 15:33:00,
2013-04-03 15:42:00,48.0,39.0,-100.00,WSW,244,2.0,4.0,72,-99.99,,,0.00,97.000000,,2013-04-03 15:42:00,
2013-04-03 15:50:00,65.0,41.0,-100.00,NE,45,1.0,3.0,41,0.00,,,0.00,361.000000,,2013-04-03 15:50:00,
2013-04-03 16:23:00,65.0,41.0,-100.00,NE,45,1.0,3.0,41,0.00,,,0.00,361.000000,,2013-04-03 16:23:00,
2013-04-03 16:32:00,65.0,41.0,-100.00,NE,45,1.0,3.0,41,0.00,,,0.00,361.000000,,2013-04-03 16:32:00,
2013-04-03 16:43:00,65.0,41.0,-100.00,NE,45,1.0,3.0,41,0.00,,,0.00,361.000000,,2013-04-03 16:43:00,
2013-04-03 16:50:00,72.0,31.0,-100.00,East,79,8.0,11.0,22,0.00,,,-99.99,585.000000,,2013-04-03 16:50:00,
2013-04-03 17:22:00,72.0,31.0,-100.00,East,79,8.0,11.0,22,0.00,,,-99.99,585.000000,,2013-04-03 17:22:00,
2013-04-03 17:32:00,72.0,31.0,-100.00,East,79,8.0,11.0,22,0.00,,,-99.99,585.000000,,2013-04-03 17:32:00,
2013-04-03 17:45:00,72.0,31.0,-100.00,East,79,8.0,11.0,22,0.00,,,-99.99,585.000000,,2013-04-03 17:45:00,
2013-04-03 17:50:00,73.0,30.0,-100.00,NE,47,9.0,18.0,20,0.00,,,0.00,775.000000,,2013-04-03 17:50:00,
2013-04-03 18:12:00,73.0,30.0,-100.00,NE,47,9.0,18.0,20,0.00,,,0.00,775.000000,,2013-04-03 18:12:00,
2013-04-03 18:22:00,73.0,30.0,-100.00,NE,47,9.0,18.0,20,0.00,,,0.00,775.000000,,2013-04-03 18:22:00,
2013-04-03 18:33:00,73.0,30.0,-100.00,NE,47,9.0,18.0,20,0.00,,,0.00,775.000000,,2013-04-03 18:33:00,
2013-04-03 18:42:00,73.0,30.0,-100.00,NE,47,9.0,18.0,20,0.00,,,0.00,775.000000,,2013-04-03 18:42:00,
2013-04-03 18:50:00,74.0,29.0,-100.00,East,92,11.0,16.0,19,0.00,,,0.00,910.000000,,2013-04-03 18:50:00,
2013-04-03 19:12:00,74.0,29.0,-100.00,East,92,11.0,16.0,19,0.00,,,0.00,910.000000,,2013-04-03 19:12:00,
2013-04-03 19:22:00,74.0,29.0,-100.00,East,92,11.0,16.0,19,0.00,,,0.00,910.000000,,2013-04-03 19:22:00,
2013-04-03 19:32:00,74.0,29.0,-100.00,East,92,11.0,16.0,19,0.00,,,0.00,910.000000,,2013-04-03 19:32:00,
2013-04-03 19:42:00,74.0,29.0,-100.00,East,92,11.0,16.0,19,0.00,,,0.00,910.000000,,2013-04-03 19:42:00,
2013-04-03 19:50:00,75.0,29.0,-100.00,East,83,10.0,20.0,18,0.00,,,0.00,975.000000,,2013-04-03 19:50:00,
2013-04-03 20:12:00,75.0,29.0,-100.00,East,83,10.0,20.0,18,0.00,,,0.00,975.000000,,2013-04-03 20:12:00,
2013-04-03 20:22:00,75.0,29.0,-100.00,East,83,10.0,20.0,18,0.00,,,0.00,975.000000,,2013-04-03 20:22:00,
2013-04-03 20:32:00,75.0,29.0,-100.00,East,83,10.0,20.0,18,0.00,,,0.00,975.000000,,2013-04-03 20:32:00,
2013-04-03 20:42:00,75.0,29.0,-100.00,East,83,10.0,20.0,18,0.00,,,0.00,975.000000,,2013-04-03 20:42:00,
2013-04-03 20:50:00,75.0,27.0,-100.00,ENE,64,8.0,18.0,17,0.00,,,0.00,973.000000,,2013-04-03 20:50:00,
2013-04-03 21:12:00,75.0,27.0,-100.00,ENE,64,8.0,18.0,17,0.00,,,0.00,973.000000,,2013-04-03 21:12:00,
2013-04-03 21:22:00,75.0,27.0,-100.00,ENE,64,8.0,18.0,17,0.00,,,0.00,973.000000,,2013-04-03 21:22:00,
2013-04-03 21:32:00,75.0,27.0,-100.00,ENE,64,8.0,18.0,17,0.00,,,0.00,973.000000,,2013-04-03 21:32:00,
2013-04-03 21:42:00,75.0,27.0,-100.00,ENE,64,8.0,18.0,17,0.00,,,0.00,973.000000,,2013-04-03 21:42:00,
2013-04-03 21:50:00,76.0,28.0,-100.00,NE,55,9.0,18.0,17,0.00,,,0.00,904.000000,,2013-04-03 21:50:00,
2013-04-03 22:22:00,76.0,28.0,-100.00,NE,55,9.0,18.0,17,0.00,,,0.00,904.000000,,2013-04-03 22:22:00,
2013-04-03 22:32:00,76.0,28.0,-100.00,NE,55,9.0,18.0,17,0.00,,,0.00,904.000000,,2013-04-03 22:32:00,
2013-04-03 22:42:00,76.0,28.0,-100.00,NE,55,9.0,18.0,17,0.00,,,0.00,904.000000,,2013-04-03 22:42:00,
2013-04-03 22:50:00,76.0,27.0,-100.00,NNE,29,9.0,15.0,16,0.00,,,0.00,772.000000,,2013-04-03 22:50:00,
2013-04-03 23:12:00,76.0,27.0,-100.00,NNE,29,9.0,15.0,16,0.00,,,0.00,772.000000,,2013-04-03 23:12:00,
2013-04-03 23:22:00,76.0,27.0,-100.00,NNE,29,9.0,15.0,16,0.00,,,0.00,772.000000,,2013-04-03 23:22:00,
2013-04-03 23:32:00,76.0,27.0,-100.00,NNE,29,9.0,15.0,16,0.00,,,0.00,772.000000,,2013-04-03 23:32:00,
2013-04-03 23:42:00,76.0,27.0,-100.00,NNE,29,9.0,15.0,16,0.00,,,0.00,772.000000,,2013-04-03 23:42:00,
2013-04-03 23:50:00,77.0,27.0,-100.00,NE,43,5.0,15.0,16,0.00,,,0.00,579.000000,,2013-04-03 23:50:00,